Location: Kerentrech
(47.7567°N, 3.3595°W)
Time: 10:17:12
(UTC+00:00)

NOSS 2-1 (E) - Pass Details

Date: 17 February 2020
Orbit: 450 x 1753 km, 63.3° (Epoch: 03 April)

Event Time Altitude Azimuth Distance (km) Brightness Sun altitude
Exits shadow 05:02:06 55° 39° (NE) 575 3.5 -23.3°
Drops below altitude 10° 05:05:11 10° 40° (NE) 1,762 6.5 -22.8°
Sets 05:07:34 0° 41° (NE) 2,783 7.6 -22.4°
